Time,TemperatureF,DewpointF,PressureIn,WindDirection,WindDirectionDegrees,WindSpeedMPH,WindSpeedGustMPH,Humidity,HourlyPrecipIn,Conditions,Clouds,dailyrainin,SoftwareType,DateUTC
2013-09-22 00:01:00,66.1,63.4,29.67,East,84,1.3,4.0,91,0.00,,,0.01,WUHU216DAVISVP2,2013-09-22 04:01:00,
2013-09-22 00:02:00,66.1,63.4,29.66,WNW,300,1.3,4.0,91,0.00,,,0.00,WUHU216DAVISVP2,2013-09-22 04:02:00,
2013-09-22 00:07:00,66.1,63.7,29.66,West,280,0.0,4.0,92,0.00,,,0.00,WUHU216DAVISVP2,2013-09-22 04:07:00,
2013-09-22 00:12:00,66.2,63.8,29.66,West,280,1.0,4.0,92,0.00,,,0.00,WUHU216DAVISVP2,2013-09-22 04:12:00,
2013-09-22 00:17:00,66.2,63.8,29.66,West,280,0.0,3.0,92,0.00,,,0.00,WUHU216DAVISVP2,2013-09-22 04:17:00,
2013-09-22 00:22:00,66.1,63.7,29.65,West,280,1.0,1.0,92,0.00,,,0.00,WUHU216DAVISVP2,2013-09-22 04:22:00,
2013-09-22 00:27:00,66.2,63.8,29.65,SSE,155,1.0,2.0,92,0.00,,,0.00,WUHU216DAVISVP2,2013-09-22 04:27:00,
2013-09-22 00:32:00,66.2,63.8,29.65,SE,144,2.0,5.0,92,0.00,,,0.00,WUHU216DAVISVP2,2013-09-22 04:32:00,
2013-09-22 00:37:00,66.5,64.1,29.65,South,170,1.1,5.0,92,0.00,,,0.00,WUHU216DAVISVP2,2013-09-22 04:37:00,
2013-09-22 00:42:00,66.6,64.2,29.65,WSW,241,1.3,6.0,92,0.00,,,0.00,WUHU216DAVISVP2,2013-09-22 04:42:00,
2013-09-22 00:47:00,66.7,64.3,29.65,SSW,206,2.1,6.0,92,0.00,,,0.00,WUHU216DAVISVP2,2013-09-22 04:47:00,
2013-09-22 00:52:00,66.8,64.4,29.64,SSW,209,1.6,6.0,92,0.00,,,0.00,WUHU216DAVISVP2,2013-09-22 04:52:00,
2013-09-22 00:57:00,66.9,64.5,29.64,South,173,1.8,6.0,92,0.00,,,0.00,WUHU216DAVISVP2,2013-09-22 04:57:00,
2013-09-22 01:02:00,66.9,64.5,29.64,SSW,201,1.2,5.0,92,0.00,,,0.00,WUHU216DAVISVP2,2013-09-22 05:02:00,
2013-09-22 01:07:00,67.0,64.6,29.63,WSW,239,1.5,4.0,92,0.00,,,0.00,WUHU216DAVISVP2,2013-09-22 05:07:00,
2013-09-22 01:12:00,67.0,64.6,29.63,SSW,196,1.0,4.0,92,0.00,,,0.00,WUHU216DAVISVP2,2013-09-22 05:12:00,
2013-09-22 01:17:00,67.0,64.6,29.63,SSE,160,1.6,3.0,92,0.00,,,0.00,WUHU216DAVISVP2,2013-09-22 05:17:00,
2013-09-22 01:22:00,67.0,64.6,29.63,South,171,0.0,3.0,92,0.00,,,0.00,WUHU216DAVISVP2,2013-09-22 05:22:00,
2013-09-22 01:27:00,67.0,64.6,29.62,SE,138,2.0,3.0,92,0.00,,,0.00,WUHU216DAVISVP2,2013-09-22 05:27:00,
2013-09-22 01:32:00,67.0,64.6,29.62,SW,222,0.0,4.0,92,0.00,,,0.00,WUHU216DAVISVP2,2013-09-22 05:32:00,
2013-09-22 01:37:00,66.9,64.5,29.61,WSW,240,1.0,4.0,92,0.00,,,0.00,WUHU216DAVISVP2,2013-09-22 05:37:00,
2013-09-22 01:42:00,66.8,64.7,29.61,WSW,240,0.0,4.0,93,0.00,,,0.00,WUHU216DAVISVP2,2013-09-22 05:42:00,
2013-09-22 01:47:00,66.8,64.7,29.61,WSW,238,1.0,4.0,93,0.00,,,0.00,WUHU216DAVISVP2,2013-09-22 05:47:00,
2013-09-22 01:52:00,66.8,64.7,29.60,SW,228,0.0,3.0,93,0.00,,,0.00,WUHU216DAVISVP2,2013-09-22 05:52:00,
2013-09-22 01:57:00,66.8,64.7,29.60,SW,228,0.0,3.0,93,0.00,,,0.00,WUHU216DAVISVP2,2013-09-22 05:57:00,
2013-09-22 02:02:00,66.7,64.6,29.60,WSW,241,2.0,3.0,93,0.00,,,0.00,WUHU216DAVISVP2,2013-09-22 06:02:00,
2013-09-22 02:07:00,66.8,64.7,29.60,WSW,244,2.0,3.0,93,0.00,,,0.00,WUHU216DAVISVP2,2013-09-22 06:07:00,
2013-09-22 02:12:00,66.8,64.7,29.59,WSW,244,1.5,3.0,93,0.00,,,0.00,WUHU216DAVISVP2,2013-09-22 06:12:00,
2013-09-22 02:17:00,66.7,64.6,29.59,WSW,242,1.0,4.0,93,0.00,,,0.00,WUHU216DAVISVP2,2013-09-22 06:17:00,
2013-09-22 02:22:00,66.8,65.0,29.58,SSE,148,1.0,4.0,94,0.00,,,0.00,WUHU216DAVISVP2,2013-09-22 06:22:00,
2013-09-22 02:27:00,66.9,65.1,29.58,SSE,148,1.0,4.0,94,0.00,,,0.00,WUHU216DAVISVP2,2013-09-22 06:27:00,
2013-09-22 02:32:00,66.8,65.0,29.58,SSE,148,1.0,4.0,94,0.00,,,0.00,WUHU216DAVISVP2,2013-09-22 06:32:00,
2013-09-22 02:37:00,66.9,65.1,29.58,WSW,242,2.3,4.0,94,0.00,,,0.00,WUHU216DAVISVP2,2013-09-22 06:37:00,
2013-09-22 02:42:00,67.0,65.2,29.58,WSW,244,4.0,7.0,94,0.00,,,0.00,WUHU216DAVISVP2,2013-09-22 06:42:00,
2013-09-22 02:47:00,67.2,65.1,29.57,SE,127,1.2,7.0,93,0.00,,,0.00,WUHU216DAVISVP2,2013-09-22 06:47:00,
2013-09-22 02:52:00,67.4,65.3,29.57,SW,232,5.0,7.0,93,0.00,,,0.00,WUHU216DAVISVP2,2013-09-22 06:52:00,
2013-09-22 02:57:00,67.6,65.5,29.56,ESE,109,2.0,8.0,93,0.00,,,0.00,WUHU216DAVISVP2,2013-09-22 06:57:00,
2013-09-22 03:02:00,67.7,65.3,29.56,SSW,192,1.8,8.0,92,0.00,,,0.00,WUHU216DAVISVP2,2013-09-22 07:02:00,
2013-09-22 03:07:00,67.8,65.4,29.56,WSW,242,2.0,8.0,92,0.00,,,0.00,WUHU216DAVISVP2,2013-09-22 07:07:00,
2013-09-22 03:12:00,68.0,65.6,29.56,SW,234,4.0,8.0,92,0.00,,,0.00,WUHU216DAVISVP2,2013-09-22 07:12:00,
2013-09-22 03:17:00,68.2,65.4,29.56,WSW,247,1.2,9.0,91,0.00,,,0.00,WUHU216DAVISVP2,2013-09-22 07:17:00,
2013-09-22 03:22:00,68.3,65.5,29.56,SW,233,1.7,9.0,91,0.00,,,0.00,WUHU216DAVISVP2,2013-09-22 07:22:00,
2013-09-22 03:27:00,68.3,65.5,29.55,South,182,2.2,9.0,91,0.00,,,0.00,WUHU216DAVISVP2,2013-09-22 07:27:00,
2013-09-22 03:32:00,68.4,65.6,29.55,West,259,1.0,9.0,91,0.00,,,0.00,WUHU216DAVISVP2,2013-09-22 07:32:00,
2013-09-22 03:37:00,68.6,65.8,29.55,SSW,196,4.1,15.0,91,0.00,,,0.00,WUHU216DAVISVP2,2013-09-22 07:37:00,
2013-09-22 03:42:00,68.7,65.6,29.55,East,80,5.0,15.0,90,0.00,,,0.00,WUHU216DAVISVP2,2013-09-22 07:42:00,
2013-09-22 03:47:00,68.8,65.7,29.55,SSW,207,1.3,15.0,90,0.00,,,0.00,WUHU216DAVISVP2,2013-09-22 07:47:00,
2013-09-22 03:52:00,68.8,65.7,29.56,SW,226,2.3,15.0,90,0.00,,,0.00,WUHU216DAVISVP2,2013-09-22 07:52:00,
2013-09-22 03:57:00,68.8,66.0,29.56,SSW,209,3.5,8.0,91,0.00,,,0.00,WUHU216DAVISVP2,2013-09-22 07:57:00,
2013-09-22 04:02:00,68.7,65.9,29.56,WSW,241,3.3,8.0,91,0.00,,,0.00,WUHU216DAVISVP2,2013-09-22 08:02:00,
2013-09-22 04:07:00,68.5,66.1,29.56,West,278,2.1,8.0,92,0.06,,,0.06,WUHU216DAVISVP2,2013-09-22 08:07:00,
2013-09-22 04:12:00,68.1,66.0,29.56,North,5,1.0,8.0,93,0.16,,,0.16,WUHU216DAVISVP2,2013-09-22 08:12:00,
2013-09-22 04:17:00,67.7,65.9,29.57,East,96,1.0,8.0,94,0.30,,,0.32,WUHU216DAVISVP2,2013-09-22 08:17:00,
2013-09-22 04:22:00,67.2,65.4,29.57,SSW,210,2.6,7.0,94,0.46,,,0.46,WUHU216DAVISVP2,2013-09-22 08:22:00,
2013-09-22 04:27:00,66.5,64.7,29.57,SSW,210,2.0,7.0,94,0.58,,,0.58,WUHU216DAVISVP2,2013-09-22 08:27:00,
2013-09-22 04:32:00,66.0,64.5,29.58,SW,226,1.0,7.0,95,0.66,,,0.66,WUHU216DAVISVP2,2013-09-22 08:32:00,
2013-09-22 04:37:00,65.6,64.1,29.58,SW,233,1.2,7.0,95,0.76,,,0.76,WUHU216DAVISVP2,2013-09-22 08:37:00,
2013-09-22 05:00:00,63.5,62.0,29.58,SW,225,0.0,3.0,95,0.78,,,0.78,WUHU216DAVISVP2,2013-09-22 09:00:00,
2013-09-22 05:30:00,62.8,61.9,29.58,SW,225,0.0,1.0,97,0.22,,,0.85,WUHU216DAVISVP2,2013-09-22 09:30:00,
2013-09-22 06:00:00,62.5,61.9,29.59,SW,225,0.0,3.0,98,0.04,,,0.89,WUHU216DAVISVP2,2013-09-22 10:00:00,
2013-09-22 06:30:00,61.9,61.0,29.59,SW,225,0.0,4.0,97,0.01,,,0.90,WUHU216DAVISVP2,2013-09-22 10:30:00,
2013-09-22 07:00:00,61.1,60.2,29.61,West,270,0.0,3.0,97,0.02,,,0.92,WUHU216DAVISVP2,2013-09-22 11:00:00,
2013-09-22 07:30:00,60.4,59.8,29.61,SSW,203,0.0,4.0,98,0.05,,,0.97,WUHU216DAVISVP2,2013-09-22 11:30:00,
2013-09-22 08:00:00,60.4,59.8,29.61,WSW,248,0.0,3.0,98,0.02,,,0.99,WUHU216DAVISVP2,2013-09-22 12:00:00,
2013-09-22 08:30:00,60.5,59.9,29.61,SW,225,0.0,3.0,98,0.00,,,0.99,WUHU216DAVISVP2,2013-09-22 12:30:00,
2013-09-22 09:15:00,60.7,59.5,29.62,WSW,248,0.0,5.0,96,0.00,,,0.99,WUHU216DAVISVP2,2013-09-22 13:15:00,
2013-09-22 09:23:00,60.8,59.9,29.62,WSW,248,2.0,5.0,97,0.00,,,0.99,WUHU216DAVISVP2,2013-09-22 13:23:00,
2013-09-22 09:28:00,60.7,59.6,29.62,SW,236,1.2,3.0,96,0.00,,,0.99,WUHU216DAVISVP2,2013-09-22 13:28:00,
2013-09-22 09:33:00,60.7,59.5,29.62,SSE,161,1.3,3.0,96,0.00,,,0.99,WUHU216DAVISVP2,2013-09-22 13:33:00,
2013-09-22 09:38:00,60.8,59.6,29.62,WSW,243,2.0,4.0,96,0.00,,,0.99,WUHU216DAVISVP2,2013-09-22 13:38:00,
2013-09-22 09:43:00,60.9,59.8,29.63,SW,219,2.0,4.0,96,0.00,,,0.99,WUHU216DAVISVP2,2013-09-22 13:43:00,
2013-09-22 09:48:00,61.2,60.1,29.63,SW,219,1.0,4.0,96,0.00,,,0.99,WUHU216DAVISVP2,2013-09-22 13:48:00,
2013-09-22 09:53:00,61.4,59.6,29.63,SW,231,1.8,4.0,94,0.00,,,0.99,WUHU216DAVISVP2,2013-09-22 13:53:00,
2013-09-22 09:58:00,61.7,60.2,29.63,SW,233,5.0,6.0,95,0.00,,,0.99,WUHU216DAVISVP2,2013-09-22 13:58:00,
2013-09-22 10:03:00,61.7,59.0,29.63,WSW,238,3.1,7.0,91,0.00,,,0.99,WUHU216DAVISVP2,2013-09-22 14:03:00,
2013-09-22 10:08:00,61.8,59.1,29.63,SSW,192,1.3,7.0,91,0.00,,,0.99,WUHU216DAVISVP2,2013-09-22 14:08:00,
2013-09-22 10:13:00,61.9,58.9,29.63,West,273,7.0,8.0,90,0.00,,,0.99,WUHU216DAVISVP2,2013-09-22 14:13:00,
2013-09-22 10:18:00,62.0,58.4,29.63,SW,223,2.1,8.0,88,0.00,,,0.99,WUHU216DAVISVP2,2013-09-22 14:18:00,
2013-09-22 10:23:00,62.2,58.3,29.63,West,280,1.8,8.0,87,0.00,,,0.99,WUHU216DAVISVP2,2013-09-22 14:23:00,
2013-09-22 10:28:00,62.3,58.1,29.63,NNE,32,4.0,8.0,86,0.00,,,0.99,WUHU216DAVISVP2,2013-09-22 14:28:00,
2013-09-22 10:33:00,62.5,58.6,29.63,WSW,243,3.6,8.0,87,0.00,,,0.99,WUHU216DAVISVP2,2013-09-22 14:33:00,
2013-09-22 10:38:00,62.7,57.8,29.63,NNE,24,2.0,8.0,84,0.00,,,0.99,WUHU216DAVISVP2,2013-09-22 14:38:00,
2013-09-22 10:43:00,62.9,57.7,29.63,SW,217,3.0,8.0,83,0.00,,,0.99,WUHU216DAVISVP2,2013-09-22 14:43:00,
2013-09-22 10:48:00,63.1,57.2,29.63,WSW,243,3.8,12.0,81,0.00,,,0.99,WUHU216DAVISVP2,2013-09-22 14:48:00,
2013-09-22 10:53:00,63.3,57.1,29.63,WSW,256,2.4,12.0,80,0.00,,,0.99,WUHU216DAVISVP2,2013-09-22 14:53:00,
2013-09-22 10:58:00,63.6,57.4,29.62,WNW,282,1.6,12.0,80,0.00,,,0.99,WUHU216DAVISVP2,2013-09-22 14:58:00,
2013-09-22 11:03:00,64.0,56.4,29.62,WSW,252,3.5,12.0,76,0.00,,,0.99,WUHU216DAVISVP2,2013-09-22 15:03:00,
2013-09-22 11:08:00,64.4,56.4,29.62,SW,225,1.9,9.0,75,0.00,,,0.99,WUHU216DAVISVP2,2013-09-22 15:08:00,
2013-09-22 11:13:00,64.6,54.7,29.62,West,269,7.0,9.0,70,0.00,,,0.99,WUHU216DAVISVP2,2013-09-22 15:13:00,
2013-09-22 11:18:00,64.7,55.2,29.62,WNW,287,4.0,15.0,71,0.00,,,0.99,WUHU216DAVISVP2,2013-09-22 15:18:00,
2013-09-22 11:23:00,64.9,55.8,29.62,WSW,250,2.4,15.0,72,0.00,,,0.99,WUHU216DAVISVP2,2013-09-22 15:23:00,
2013-09-22 11:28:00,65.2,54.9,29.62,NNW,327,2.0,15.0,69,0.00,,,0.99,WUHU216DAVISVP2,2013-09-22 15:28:00,
2013-09-22 11:33:00,65.5,55.6,29.63,SE,140,1.0,9.0,70,0.00,,,0.99,WUHU216DAVISVP2,2013-09-22 15:33:00,
2013-09-22 11:38:00,65.9,54.8,29.62,SSW,199,5.0,9.0,67,0.00,,,0.99,WUHU216DAVISVP2,2013-09-22 15:38:00,
2013-09-22 11:43:00,66.1,56.2,29.63,West,264,4.0,12.0,70,0.00,,,0.99,WUHU216DAVISVP2,2013-09-22 15:43:00,
2013-09-22 11:48:00,66.3,55.6,29.63,SSW,196,1.3,12.0,68,0.00,,,0.99,WUHU216DAVISVP2,2013-09-22 15:48:00,
2013-09-22 11:53:00,66.6,55.9,29.63,SE,124,2.5,12.0,68,0.00,,,0.99,WUHU216DAVISVP2,2013-09-22 15:53:00,
2013-09-22 11:58:00,66.7,55.2,29.63,NW,312,1.4,12.0,66,0.00,,,0.99,WUHU216DAVISVP2,2013-09-22 15:58:00,
2013-09-22 12:03:00,66.9,54.5,29.63,ENE,68,1.1,8.0,64,0.00,,,0.99,WUHU216DAVISVP2,2013-09-22 16:03:00,
2013-09-22 12:08:00,67.0,53.7,29.63,WSW,242,3.0,6.0,62,0.00,,,0.99,WUHU216DAVISVP2,2013-09-22 16:08:00,
2013-09-22 12:13:00,66.7,53.4,29.63,SSW,200,2.3,9.0,62,0.00,,,0.99,WUHU216DAVISVP2,2013-09-22 16:13:00,
2013-09-22 12:18:00,66.6,53.8,29.63,NW,316,6.0,9.0,63,0.00,,,0.99,WUHU216DAVISVP2,2013-09-22 16:18:00,
2013-09-22 12:23:00,66.7,53.4,29.63,West,274,3.2,9.0,62,0.00,,,0.99,WUHU216DAVISVP2,2013-09-22 16:23:00,
2013-09-22 12:28:00,66.7,53.0,29.63,SSW,207,4.0,9.0,61,0.00,,,0.99,WUHU216DAVISVP2,2013-09-22 16:28:00,
2013-09-22 12:33:00,66.8,53.5,29.63,SW,219,3.0,9.0,62,0.00,,,0.99,WUHU216DAVISVP2,2013-09-22 16:33:00,
2013-09-22 12:38:00,67.1,53.8,29.63,SSE,162,1.6,9.0,62,0.00,,,0.99,WUHU216DAVISVP2,2013-09-22 16:38:00,
2013-09-22 12:43:00,67.3,52.6,29.63,SW,215,4.2,9.0,59,0.00,,,0.99,WUHU216DAVISVP2,2013-09-22 16:43:00,
2013-09-22 12:48:00,67.3,52.2,29.63,WSW,244,3.9,9.0,58,0.00,,,0.99,WUHU216DAVISVP2,2013-09-22 16:48:00,
2013-09-22 12:53:00,67.6,54.3,29.63,North,350,1.7,10.0,62,0.00,,,0.99,WUHU216DAVISVP2,2013-09-22 16:53:00,
2013-09-22 12:58:00,67.9,53.2,29.63,West,281,2.3,10.0,59,0.00,,,0.99,WUHU216DAVISVP2,2013-09-22 16:58:00,
2013-09-22 13:03:00,67.8,52.6,29.63,SW,225,4.3,10.0,58,0.00,,,0.99,WUHU216DAVISVP2,2013-09-22 17:03:00,
2013-09-22 13:08:00,67.8,53.6,29.63,SW,231,2.5,10.0,60,0.00,,,0.99,WUHU216DAVISVP2,2013-09-22 17:08:00,
2013-09-22 13:13:00,68.1,54.3,29.63,North,11,3.1,12.0,61,0.00,,,0.99,WUHU216DAVISVP2,2013-09-22 17:13:00,
2013-09-22 13:18:00,67.6,53.8,29.63,NW,308,2.6,12.0,61,0.00,,,0.99,WUHU216DAVISVP2,2013-09-22 17:18:00,
2013-09-22 13:23:00,66.7,52.1,29.63,ENE,60,2.8,12.0,59,0.00,,,0.99,WUHU216DAVISVP2,2013-09-22 17:23:00,
2013-09-22 13:28:00,66.2,51.4,29.63,East,94,3.0,12.0,59,0.00,,,0.99,WUHU216DAVISVP2,2013-09-22 17:28:00,
2013-09-22 13:33:00,66.0,51.7,29.63,North,359,2.8,10.0,60,0.00,,,0.99,WUHU216DAVISVP2,2013-09-22 17:33:00,
2013-09-22 13:38:00,66.5,53.1,29.63,WNW,292,4.0,10.0,62,0.00,,,0.99,WUHU216DAVISVP2,2013-09-22 17:38:00,
2013-09-22 13:43:00,66.6,53.2,29.63,West,264,2.2,10.0,62,0.00,,,0.99,WUHU216DAVISVP2,2013-09-22 17:43:00,
2013-09-22 13:48:00,66.8,52.9,29.63,WNW,298,1.0,10.0,61,0.00,,,0.99,WUHU216DAVISVP2,2013-09-22 17:48:00,
2013-09-22 13:53:00,66.7,53.7,29.63,ESE,123,1.0,10.0,63,0.00,,,0.99,WUHU216DAVISVP2,2013-09-22 17:53:00,
2013-09-22 13:58:00,66.8,54.2,29.63,SW,227,4.0,10.0,64,0.00,,,0.99,WUHU216DAVISVP2,2013-09-22 17:58:00,
2013-09-22 14:03:00,66.9,52.1,29.63,SW,230,4.1,9.0,59,0.00,,,0.99,WUHU216DAVISVP2,2013-09-22 18:03:00,
2013-09-22 14:08:00,66.9,52.7,29.63,WSW,240,2.4,9.0,60,0.00,,,0.99,WUHU216DAVISVP2,2013-09-22 18:08:00,
2013-09-22 14:13:00,67.0,52.8,29.63,ESE,119,3.0,9.0,60,0.00,,,0.99,WUHU216DAVISVP2,2013-09-22 18:13:00,
2013-09-22 14:18:00,67.1,52.4,29.63,West,259,3.0,9.0,59,0.00,,,0.99,WUHU216DAVISVP2,2013-09-22 18:18:00,
2013-09-22 14:23:00,66.8,53.1,29.63,SSW,213,1.7,8.0,61,0.00,,,0.99,WUHU216DAVISVP2,2013-09-22 18:23:00,
2013-09-22 14:28:00,66.5,52.8,29.63,WSW,238,5.0,9.0,61,0.00,,,0.99,WUHU216DAVISVP2,2013-09-22 18:28:00,
2013-09-22 14:33:00,66.5,52.8,29.63,NNE,13,2.5,9.0,61,0.00,,,0.99,WUHU216DAVISVP2,2013-09-22 18:33:00,
2013-09-22 14:38:00,66.3,53.5,29.63,NNE,22,1.8,9.0,63,0.00,,,0.99,WUHU216DAVISVP2,2013-09-22 18:38:00,
2013-09-22 14:43:00,65.9,53.5,29.63,NNE,24,4.0,8.0,64,0.00,,,0.99,WUHU216DAVISVP2,2013-09-22 18:43:00,
2013-09-22 14:48:00,65.8,52.1,29.63,NE,42,2.6,6.0,61,0.00,,,0.99,WUHU216DAVISVP2,2013-09-22 18:48:00,
2013-09-22 14:53:00,65.8,52.6,29.63,ENE,60,2.0,6.0,62,0.00,,,0.99,WUHU216DAVISVP2,2013-09-22 18:53:00,
2013-09-22 14:58:00,66.1,53.7,29.63,NE,44,1.0,6.0,64,0.00,,,0.99,WUHU216DAVISVP2,2013-09-22 18:58:00,
2013-09-22 15:03:00,66.7,54.3,29.63,SSE,164,3.0,6.0,64,0.00,,,0.99,WUHU216DAVISVP2,2013-09-22 19:03:00,
2013-09-22 15:08:00,66.9,52.7,29.63,ENE,76,3.0,9.0,60,0.00,,,0.99,WUHU216DAVISVP2,2013-09-22 19:08:00,
2013-09-22 15:13:00,66.6,52.4,29.63,North,10,1.8,9.0,60,0.00,,,0.99,WUHU216DAVISVP2,2013-09-22 19:13:00,
2013-09-22 15:18:00,65.9,52.2,29.63,WNW,298,5.0,9.0,61,0.00,,,0.99,WUHU216DAVISVP2,2013-09-22 19:18:00,
2013-09-22 15:23:00,65.6,51.8,29.63,ENE,63,2.1,7.0,61,0.00,,,0.99,WUHU216DAVISVP2,2013-09-22 19:23:00,
2013-09-22 15:28:00,65.6,53.1,29.63,North,7,2.1,7.0,64,0.00,,,0.99,WUHU216DAVISVP2,2013-09-22 19:28:00,
2013-09-22 15:33:00,65.6,53.1,29.63,WSW,241,1.8,7.0,64,0.00,,,0.99,WUHU216DAVISVP2,2013-09-22 19:33:00,
2013-09-22 15:38:00,65.5,53.0,29.64,West,261,1.0,5.0,64,0.00,,,0.99,WUHU216DAVISVP2,2013-09-22 19:38:00,
2013-09-22 15:43:00,65.3,53.6,29.64,West,261,0.0,5.0,66,0.00,,,0.99,WUHU216DAVISVP2,2013-09-22 19:43:00,
2013-09-22 15:48:00,65.3,54.9,29.64,East,91,1.2,5.0,69,0.00,,,0.99,WUHU216DAVISVP2,2013-09-22 19:48:00,
2013-09-22 15:53:00,65.5,53.8,29.64,NE,36,1.9,5.0,66,0.00,,,0.99,WUHU216DAVISVP2,2013-09-22 19:53:00,
2013-09-22 15:58:00,65.4,53.7,29.64,NW,316,1.4,6.0,66,0.00,,,0.99,WUHU216DAVISVP2,2013-09-22 19:58:00,
2013-09-22 16:03:00,65.6,53.9,29.64,NE,55,2.5,9.0,66,0.00,,,0.99,WUHU216DAVISVP2,2013-09-22 20:03:00,
2013-09-22 16:08:00,65.5,53.0,29.65,NE,37,4.9,9.0,64,0.00,,,0.99,WUHU216DAVISVP2,2013-09-22 20:08:00,
2013-09-22 16:13:00,65.2,53.1,29.65,ENE,59,2.3,9.0,65,0.00,,,0.99,WUHU216DAVISVP2,2013-09-22 20:13:00,
2013-09-22 16:18:00,64.7,52.8,29.64,West,260,2.3,8.0,65,0.00,,,0.99,WUHU216DAVISVP2,2013-09-22 20:18:00,
2013-09-22 16:23:00,64.4,53.0,29.65,WSW,238,1.5,8.0,66,0.00,,,0.99,WUHU216DAVISVP2,2013-09-22 20:23:00,
2013-09-22 16:28:00,64.3,53.7,29.65,WNW,301,1.0,6.0,68,0.00,,,0.99,WUHU216DAVISVP2,2013-09-22 20:28:00,
2013-09-22 16:33:00,64.1,53.5,29.65,WNW,284,3.0,6.0,68,0.00,,,0.99,WUHU216DAVISVP2,2013-09-22 20:33:00,
2013-09-22 16:38:00,64.0,54.2,29.65,WSW,253,1.0,5.0,70,0.00,,,0.99,WUHU216DAVISVP2,2013-09-22 20:38:00,
2013-09-22 16:43:00,63.8,53.2,29.65,West,271,4.0,5.0,68,0.00,,,0.99,WUHU216DAVISVP2,2013-09-22 20:43:00,
2013-09-22 16:48:00,63.8,52.8,29.65,SSW,212,1.8,5.0,67,0.00,,,0.99,WUHU216DAVISVP2,2013-09-22 20:48:00,
2013-09-22 16:53:00,64.2,54.0,29.65,SE,140,3.0,5.0,69,0.00,,,0.99,WUHU216DAVISVP2,2013-09-22 20:53:00,
2013-09-22 16:58:00,64.5,54.3,29.66,SE,137,1.0,5.0,69,0.00,,,0.99,WUHU216DAVISVP2,2013-09-22 20:58:00,
2013-09-22 17:03:00,64.5,53.9,29.66,South,183,4.0,4.0,68,0.00,,,0.99,WUHU216DAVISVP2,2013-09-22 21:03:00,
2013-09-22 17:08:00,64.1,53.5,29.66,NNE,33,2.3,9.0,68,0.00,,,0.99,WUHU216DAVISVP2,2013-09-22 21:08:00,
2013-09-22 17:13:00,63.2,52.6,29.67,ENE,62,5.0,10.0,68,0.00,,,0.99,WUHU216DAVISVP2,2013-09-22 21:13:00,
2013-09-22 17:18:00,62.1,52.7,29.67,NE,53,2.3,10.0,71,0.00,,,0.99,WUHU216DAVISVP2,2013-09-22 21:18:00,
2013-09-22 17:23:00,61.2,52.6,29.68,NNW,346,5.0,10.0,73,0.00,,,0.99,WUHU216DAVISVP2,2013-09-22 21:23:00,
2013-09-22 17:28:00,60.4,52.5,29.68,NNE,29,6.0,13.0,75,0.00,,,0.99,WUHU216DAVISVP2,2013-09-22 21:28:00,
2013-09-22 17:33:00,60.0,51.8,29.68,NE,49,3.0,13.0,74,0.00,,,0.99,WUHU216DAVISVP2,2013-09-22 21:33:00,
2013-09-22 17:38:00,59.8,51.6,29.69,NE,34,2.0,13.0,74,0.00,,,0.99,WUHU216DAVISVP2,2013-09-22 21:38:00,
2013-09-22 17:43:00,59.6,51.4,29.69,NNE,31,4.2,13.0,74,0.00,,,0.99,WUHU216DAVISVP2,2013-09-22 21:43:00,
2013-09-22 17:48:00,59.5,51.7,29.69,NNE,27,1.8,9.0,75,0.00,,,0.99,WUHU216DAVISVP2,2013-09-22 21:48:00,
2013-09-22 17:53:00,59.3,51.7,29.69,NE,37,2.1,9.0,76,0.00,,,0.99,WUHU216DAVISVP2,2013-09-22 21:53:00,
2013-09-22 17:58:00,59.2,51.6,29.69,East,84,1.3,9.0,76,0.00,,,0.99,WUHU216DAVISVP2,2013-09-22 21:58:00,
2013-09-22 18:03:00,59.1,51.9,29.69,West,277,0.0,7.0,77,0.00,,,0.99,WUHU216DAVISVP2,2013-09-22 22:03:00,
2013-09-22 18:08:00,59.0,51.8,29.69,SW,223,2.0,7.0,77,0.00,,,0.99,WUHU216DAVISVP2,2013-09-22 22:08:00,
2013-09-22 18:13:00,58.9,51.7,29.69,North,352,3.3,6.0,77,0.00,,,0.99,WUHU216DAVISVP2,2013-09-22 22:13:00,
2013-09-22 18:18:00,58.8,51.6,29.70,NNE,31,2.7,6.0,77,0.00,,,0.99,WUHU216DAVISVP2,2013-09-22 22:18:00,
2013-09-22 18:23:00,58.7,51.5,29.70,NE,46,1.5,6.0,77,0.00,,,0.99,WUHU216DAVISVP2,2013-09-22 22:23:00,
2013-09-22 18:28:00,58.7,51.5,29.70,NE,54,0.0,6.0,77,0.00,,,0.99,WUHU216DAVISVP2,2013-09-22 22:28:00,
2013-09-22 18:33:00,58.6,51.8,29.70,NE,37,3.6,6.0,78,0.00,,,0.99,WUHU216DAVISVP2,2013-09-22 22:33:00,
2013-09-22 18:38:00,58.5,51.7,29.70,NE,36,1.3,6.0,78,0.00,,,0.99,WUHU216DAVISVP2,2013-09-22 22:38:00,
2013-09-22 18:43:00,58.3,51.5,29.71,NE,51,2.3,6.0,78,0.00,,,0.99,WUHU216DAVISVP2,2013-09-22 22:43:00,
2013-09-22 18:48:00,58.1,51.7,29.71,NNE,18,3.0,6.0,79,0.00,,,0.99,WUHU216DAVISVP2,2013-09-22 22:48:00,
2013-09-22 18:53:00,57.9,51.5,29.71,NNE,21,2.2,5.0,79,0.00,,,0.99,WUHU216DAVISVP2,2013-09-22 22:53:00,
2013-09-22 18:58:00,57.8,50.7,29.72,NE,39,3.7,15.0,77,0.00,,,0.99,WUHU216DAVISVP2,2013-09-22 22:58:00,
2013-09-22 19:03:00,57.6,50.9,29.72,NE,36,7.0,15.0,78,0.00,,,0.99,WUHU216DAVISVP2,2013-09-22 23:03:00,
2013-09-22 19:08:00,57.2,49.8,29.72,NE,39,3.1,15.0,76,0.00,,,0.99,WUHU216DAVISVP2,2013-09-22 23:08:00,
2013-09-22 19:13:00,56.9,49.5,29.73,NE,40,2.9,15.0,76,0.00,,,0.99,WUHU216DAVISVP2,2013-09-22 23:13:00,
2013-09-22 19:18:00,56.7,50.0,29.73,ENE,60,3.0,11.0,78,0.00,,,0.99,WUHU216DAVISVP2,2013-09-22 23:18:00,
2013-09-22 19:23:00,56.5,49.5,29.73,NNE,25,5.0,10.0,77,0.00,,,0.99,WUHU216DAVISVP2,2013-09-22 23:23:00,
2013-09-22 19:28:00,56.4,49.7,29.73,North,354,1.8,7.0,78,0.00,,,0.99,WUHU216DAVISVP2,2013-09-22 23:28:00,
2013-09-22 19:33:00,56.4,49.7,29.74,North,5,2.0,7.0,78,0.00,,,0.99,WUHU216DAVISVP2,2013-09-22 23:33:00,
2013-09-22 19:38:00,56.3,49.3,29.74,NE,34,1.9,6.0,77,0.00,,,0.99,WUHU216DAVISVP2,2013-09-22 23:38:00,
2013-09-22 19:43:00,56.2,49.1,29.74,NNE,22,4.0,7.0,77,0.00,,,0.99,WUHU216DAVISVP2,2013-09-22 23:43:00,
2013-09-22 19:48:00,56.1,49.0,29.74,SW,218,1.6,7.0,77,0.00,,,0.99,WUHU216DAVISVP2,2013-09-22 23:48:00,
2013-09-22 19:53:00,56.1,49.3,29.75,NNE,13,1.9,7.0,78,0.00,,,0.99,WUHU216DAVISVP2,2013-09-22 23:53:00,
2013-09-22 19:58:00,56.0,49.6,29.75,NNW,344,1.0,7.0,79,0.00,,,0.99,WUHU216DAVISVP2,2013-09-22 23:58:00,
2013-09-22 20:03:00,55.8,49.4,29.75,NNW,344,0.0,5.0,79,0.00,,,0.99,WUHU216DAVISVP2,2013-09-23 00:03:00,
2013-09-22 20:08:00,55.7,49.6,29.75,WSW,238,0.0,4.0,80,0.00,,,0.99,WUHU216DAVISVP2,2013-09-23 00:08:00,
2013-09-22 20:13:00,55.5,49.4,29.75,WSW,238,0.0,2.0,80,0.00,,,0.99,WUHU216DAVISVP2,2013-09-23 00:13:00,
2013-09-22 20:18:00,55.4,49.4,29.75,SSW,204,1.0,2.0,80,0.00,,,0.99,WUHU216DAVISVP2,2013-09-23 00:18:00,
2013-09-22 20:23:00,55.3,49.6,29.76,SSE,163,1.0,2.0,81,0.00,,,0.99,WUHU216DAVISVP2,2013-09-23 00:23:00,
2013-09-22 20:28:00,55.2,49.5,29.76,NE,36,1.7,3.0,81,0.00,,,0.99,WUHU216DAVISVP2,2013-09-23 00:28:00,
2013-09-22 20:33:00,55.1,49.7,29.76,NE,36,1.0,3.0,82,0.00,,,0.99,WUHU216DAVISVP2,2013-09-23 00:33:00,
2013-09-22 20:38:00,55.0,49.6,29.76,NE,44,4.0,4.0,82,0.00,,,0.99,WUHU216DAVISVP2,2013-09-23 00:38:00,
2013-09-22 20:43:00,54.9,49.2,29.76,NW,304,2.5,5.0,81,0.00,,,0.99,WUHU216DAVISVP2,2013-09-23 00:43:00,
2013-09-22 20:48:00,54.9,49.2,29.76,NNE,32,0.0,5.0,81,0.00,,,0.99,WUHU216DAVISVP2,2013-09-23 00:48:00,
2013-09-22 20:53:00,54.8,49.1,29.77,NNE,17,1.0,5.0,81,0.00,,,0.99,WUHU216DAVISVP2,2013-09-23 00:53:00,
2013-09-22 20:58:00,54.7,49.0,29.77,NNE,17,0.0,5.0,81,0.00,,,0.99,WUHU216DAVISVP2,2013-09-23 00:58:00,
2013-09-22 21:03:00,54.6,48.6,29.77,NNE,24,1.0,3.0,80,0.00,,,0.99,WUHU216DAVISVP2,2013-09-23 01:03:00,
2013-09-22 21:08:00,54.5,48.5,29.77,NW,306,2.1,3.0,80,0.00,,,0.99,WUHU216DAVISVP2,2013-09-23 01:08:00,
2013-09-22 21:13:00,54.4,48.7,29.77,NNE,22,1.0,3.0,81,0.00,,,0.99,WUHU216DAVISVP2,2013-09-23 01:13:00,
2013-09-22 21:18:00,54.2,48.5,29.77,NNE,13,1.0,3.0,81,0.00,,,0.99,WUHU216DAVISVP2,2013-09-23 01:18:00,
2013-09-22 21:23:00,54.0,47.7,29.78,NNE,25,2.3,5.0,79,0.00,,,0.99,WUHU216DAVISVP2,2013-09-23 01:23:00,
2013-09-22 21:28:00,53.9,48.2,29.78,NE,44,0.0,5.0,81,0.00,,,0.99,WUHU216DAVISVP2,2013-09-23 01:28:00,
2013-09-22 21:33:00,53.6,47.3,29.78,NE,52,1.6,5.0,79,0.00,,,0.99,WUHU216DAVISVP2,2013-09-23 01:33:00,
2013-09-22 21:38:00,53.4,47.1,29.78,NNE,32,1.3,6.0,79,0.00,,,0.99,WUHU216DAVISVP2,2013-09-23 01:38:00,
2013-09-22 21:43:00,53.3,46.6,29.79,NNE,26,1.5,6.0,78,0.00,,,0.99,WUHU216DAVISVP2,2013-09-23 01:43:00,
2013-09-22 21:48:00,53.2,46.9,29.79,SSE,165,0.0,6.0,79,0.00,,,0.99,WUHU216DAVISVP2,2013-09-23 01:48:00,
2013-09-22 21:53:00,52.9,46.6,29.79,WSW,257,1.0,6.0,79,0.00,,,0.99,WUHU216DAVISVP2,2013-09-23 01:53:00,
2013-09-22 21:58:00,52.7,46.0,29.79,NE,36,3.0,6.0,78,0.00,,,0.99,WUHU216DAVISVP2,2013-09-23 01:58:00,
2013-09-22 22:03:00,52.5,46.2,29.79,NE,47,1.3,3.0,79,0.00,,,0.99,WUHU216DAVISVP2,2013-09-23 02:03:00,
2013-09-22 22:08:00,52.4,45.7,29.79,ENE,65,1.0,4.0,78,0.00,,,0.99,WUHU216DAVISVP2,2013-09-23 02:08:00,
2013-09-22 22:13:00,52.3,46.3,29.80,West,272,1.0,4.0,80,0.00,,,0.99,WUHU216DAVISVP2,2013-09-23 02:13:00,
2013-09-22 22:18:00,52.2,45.2,29.80,ENE,63,2.2,5.0,77,0.00,,,0.99,WUHU216DAVISVP2,2013-09-23 02:18:00,
2013-09-22 22:23:00,52.1,45.1,29.80,NE,49,2.0,5.0,77,0.00,,,0.99,WUHU216DAVISVP2,2013-09-23 02:23:00,
2013-09-22 22:28:00,52.1,44.8,29.80,NNE,12,2.2,5.0,76,0.00,,,0.99,WUHU216DAVISVP2,2013-09-23 02:28:00,
2013-09-22 22:33:00,52.2,44.9,29.80,NNE,24,0.0,5.0,76,0.00,,,0.99,WUHU216DAVISVP2,2013-09-23 02:33:00,
2013-09-22 22:38:00,52.1,44.8,29.80,North,5,1.0,5.0,76,0.00,,,0.99,WUHU216DAVISVP2,2013-09-23 02:38:00,
2013-09-22 22:43:00,51.9,45.0,29.81,NW,313,1.0,5.0,77,0.00,,,0.99,WUHU216DAVISVP2,2013-09-23 02:43:00,
2013-09-22 22:48:00,51.7,45.1,29.81,NE,38,1.0,3.0,78,0.00,,,0.99,WUHU216DAVISVP2,2013-09-23 02:48:00,
2013-09-22 22:53:00,51.4,44.5,29.81,NNW,335,1.4,3.0,77,0.00,,,0.99,WUHU216DAVISVP2,2013-09-23 02:53:00,
2013-09-22 22:58:00,51.2,45.0,29.80,NNW,331,0.0,3.0,79,0.00,,,0.99,WUHU216DAVISVP2,2013-09-23 02:58:00,
2013-09-22 23:03:00,50.8,44.6,29.80,NNW,333,1.0,2.0,79,0.00,,,0.99,WUHU216DAVISVP2,2013-09-23 03:03:00,
2013-09-22 23:08:00,50.4,44.8,29.80,NE,55,0.0,2.0,81,0.00,,,0.99,WUHU216DAVISVP2,2013-09-23 03:08:00,
2013-09-22 23:13:00,50.1,44.8,29.80,NE,55,0.0,2.0,82,0.00,,,0.99,WUHU216DAVISVP2,2013-09-23 03:13:00,
2013-09-22 23:18:00,49.7,44.8,29.80,NE,55,0.0,2.0,83,0.00,,,0.99,WUHU216DAVISVP2,2013-09-23 03:18:00,
2013-09-22 23:23:00,49.4,44.8,29.81,NE,55,0.0,2.0,84,0.00,,,0.99,WUHU216DAVISVP2,2013-09-23 03:23:00,
2013-09-22 23:28:00,49.2,44.9,29.81,NE,55,0.0,1.0,85,0.00,,,0.99,WUHU216DAVISVP2,2013-09-23 03:28:00,
2013-09-22 23:33:00,49.0,44.7,29.81,NE,55,0.0,1.0,85,0.00,,,0.99,WUHU216DAVISVP2,2013-09-23 03:33:00,
2013-09-22 23:38:00,48.7,44.7,29.81,NE,55,0.0,1.0,86,0.00,,,0.99,WUHU216DAVISVP2,2013-09-23 03:38:00,
2013-09-22 23:43:00,48.4,44.7,29.81,NE,55,1.0,1.0,87,0.00,,,0.99,WUHU216DAVISVP2,2013-09-23 03:43:00,
2013-09-22 23:48:00,48.1,44.4,29.81,NE,55,0.0,1.0,87,0.00,,,0.99,WUHU216DAVISVP2,2013-09-23 03:48:00,
2013-09-22 23:53:00,47.8,44.1,29.81,NE,55,0.0,1.0,87,0.00,,,0.99,WUHU216DAVISVP2,2013-09-23 03:53:00,
2013-09-22 23:58:00,47.6,44.2,29.81,NE,55,0.0,1.0,88,0.00,,,0.99,WUHU216DAVISVP2,2013-09-23 03:58:00,